Veribest, TX

6:24 PM CST on February 05, 2016 (GMT -0600)
San Angelo Regional-Mathis

Weather History for KSJT - December, 2012

Change the Weather History Date:

Tuesday, December 25, 2012

  Actual Average Record
Temperature  
Mean Temperature 43 °F 46 °F  
Max Temperature 55 °F 59 °F 79 °F (1955)
Min Temperature 30 °F 33 °F 5 °F (1983)
Degree Days  
Heating Degree Days 22 19  
Month to date heating degree days 267 449  
Since 1 July heating degree days 572 849  
Cooling Degree Days 0 0  
Month to date cooling degree days 17 0  
Year to date cooling degree days 3243 2502  
Moisture  
Dew Point 23 °F    
Average Humidity 53    
Maximum Humidity 64    
Minimum Humidity 41    
Precipitation  
Precipitation 0.02 in 0.03 in 0.80 in (1974)
Month to date precipitation 0.03 0.66  
Year to date precipitation 21.81 21.06  
Snow  
Snow 0.00 in 0.00 in 2.00 in (1926)
Month to date snowfall 0.0 0.2  
Since 1 July snowfall T 0.5  
Snow Depth 0.00 in    
Sea Level Pressure  
Sea Level Pressure 29.96 in    
Wind  
Wind Speed 14 mph (NW)    
Max Wind Speed 29 mph    
Max Gust Speed 37 mph    
Visibility 10 miles    
Events Rain    
T = Trace of Precipitation, MM = Missing Value Source: NWS Daily Summary

Daily Weather History Graph

Daily Weather History Graph

Search for Another Location

Airport or City:

Trip Planner

Search our weather history database for the weather conditions in past years. The results will help you decide how hot, cold, wet, or windy it might be!

Date:

Astronomy

Dec. 25, 2012 Rise Set
Actual Time 7:39 AM CST 5:45 PM CST
Civil Twilight 7:12 AM CST 6:12 PM CST
Nautical Twilight 6:41 AM CST 6:43 PM CST
Astronomical Twilight 6:12 AM CST 7:12 PM CST
Moon 3:53 PM CST (12/25) 5:15 AM CST (12/25)
Length of Visible Light 11h 00m
Length of Day
10h 06m
Waxing Gibbous, 94% of the Moon is Illuminated
Dec 25
Waxing Gibbous
Dec 28
Full
Jan 4
Last Quarter
Jan 11
New
Jan 18
First Quarter

Hourly Weather History & Observations

Time (CST) Temp. Windchill Dew Point Humidity Pressure Visibility Wind Dir Wind Speed Gust Speed Precip Events Conditions
12:51 AM 44.1 °F 40.8 °F 26.1 °F 49% 29.67 in 10.0 mi NNW 5.8 mph - N/A   Clear
1:51 AM 44.1 °F - 27.0 °F 51% 29.64 in 10.0 mi Calm Calm - N/A   Clear
2:51 AM 44.1 °F 41.5 °F 26.1 °F 49% 29.64 in 10.0 mi NW 4.6 mph - N/A   Clear
3:51 AM 44.1 °F 41.5 °F 27.0 °F 51% 29.62 in 10.0 mi South 4.6 mph - N/A   Mostly Cloudy
4:51 AM 44.1 °F - 35.1 °F 71% 29.61 in 10.0 mi Calm Calm - 0.02 in Rain Light Rain
5:51 AM 46.9 °F - 37.9 °F 71% 29.63 in 10.0 mi WSW 3.5 mph - 0.00 in   Partly Cloudy
6:51 AM 50.0 °F - 36.0 °F 59% 29.64 in 10.0 mi WSW 12.7 mph - N/A   Partly Cloudy
7:51 AM 53.1 °F - 33.1 °F 47% 29.67 in 10.0 mi WNW 24.2 mph 36.8 mph N/A   Clear
8:51 AM 53.1 °F - 30.9 °F 43% 29.75 in 10.0 mi WNW 20.7 mph 28.8 mph N/A   Clear
9:51 AM 42.1 °F 33.3 °F 28.0 °F 58% 29.89 in 10.0 mi North 19.6 mph - N/A   Clear
10:47 AM 39.2 °F 29.3 °F 26.6 °F 61% 29.97 in 8.0 mi North 20.7 mph - N/A   Mostly Cloudy
10:51 AM 39.9 °F 31.1 °F 26.1 °F 58% 29.98 in 8.0 mi North 17.3 mph - N/A   Mostly Cloudy
11:51 AM 36.0 °F 24.4 °F 25.0 °F 64% 30.03 in 8.0 mi NNW 23.0 mph - N/A   Overcast
12:51 PM 37.9 °F 27.6 °F 23.0 °F 55% 30.04 in 10.0 mi NNW 20.7 mph - N/A   Overcast
1:51 PM 39.9 °F 29.7 °F 21.0 °F 47% 30.05 in 10.0 mi NW 23.0 mph 31.1 mph N/A   Mostly Cloudy
2:51 PM 39.9 °F 30.8 °F 21.0 °F 47% 30.06 in 10.0 mi NW 18.4 mph 31.1 mph N/A   Partly Cloudy
3:51 PM 39.0 °F 27.8 °F 19.0 °F 45% 30.08 in 10.0 mi NNW 26.5 mph 32.2 mph N/A   Clear
4:51 PM 37.0 °F 27.4 °F 18.0 °F 46% 30.09 in 10.0 mi NNW 17.3 mph - N/A   Clear
5:51 PM 34.0 °F 23.8 °F 16.0 °F 48% 30.12 in 10.0 mi NNW 16.1 mph 26.5 mph N/A   Clear
6:51 PM 33.1 °F 23.0 °F 15.1 °F 48% 30.16 in 10.0 mi NW 15.0 mph - N/A   Clear
7:51 PM 32.0 °F 22.5 °F 15.1 °F 50% 30.18 in 10.0 mi NW 12.7 mph - N/A   Clear
8:51 PM 30.9 °F 21.7 °F 14.0 °F 50% 30.19 in 10.0 mi NW 11.5 mph - N/A   Scattered Clouds
9:51 PM 32.0 °F 21.6 °F 15.1 °F 50% 30.23 in 10.0 mi NNW 15.0 mph - N/A   Overcast
10:51 PM 30.9 °F 19.4 °F 15.1 °F 52% 30.26 in 10.0 mi NNW 17.3 mph - N/A   Overcast
11:22 PM 30.2 °F 19.8 °F 15.8 °F 55% 30.22 in 10.0 mi NNW 13.8 mph - N/A   Overcast
11:51 PM 30.9 °F 19.4 °F 16.0 °F 54% 30.26 in 10.0 mi NNW 17.3 mph - N/A   Overcast